Location: Newark
(25.0000°N, 73.5000°E)
Time: 08:34:57
(UTC+00:00)

Tiangong - Pass Details

Date: 28 June 2021
Orbit: 374 x 386 km, 41.5° (Epoch: 28 July)

Event Time Altitude Azimuth Distance (km) Brightness Sun altitude
Rises 22:40:41 0° 327° (NNW) 2,233 5.0 -19.7°
Maximum altitude 22:44:53 10° 21° (NNE) 1,386 4.7 -18.9°
Drops below altitude 10° 22:47:21 - 60° (ENE) 1,732 5.8 -18.5°
Sets 22:49:06 0° 76° (ENE) 2,242 6.2 -18.2°
